Macclesfield, United Kingdom
Current Conditions -  °F | °C
As of 9:20 PM on Sunday 23 Nov 2014 (Local Time) from EGCC Reporting Station
Clear Clear  
Wind Chill: 31°   Ceiling: Unl
Heat Index: 36°   Visibility: 6mi
Dew Point: 36°   Wind: 6mph
Humidity: 100%   Direction: 160°SSE
Pressure: 30.12"   Gusts: NA
Location:  53.26°N, 2.13°W
Report Text: EGCC 232120Z 16005KT CAVOK 02/02 Q1020 NOSIG
Loading
Personal Weather Stations






























Interactive Weather Map New forecast layout! Learn more

10-Day Weather Forecast

Advertisements
Track Severe Weather on mobile